IRIDIUM 20 [-]

Last updated on Tue Oct 23 2018 00:08:16 GMT+0000 (Coordinated Universal Time)

1 25577U 98074A 18295.01543525 .42401386 -12154-5 20537-3 0 9991 2 25577 86.5903 48.8472 0044454 292.7301 67.5424 16.52533789 39196

Satellite not in orbit

IRIDIUM 20 [-]